This is the latest recevied weather packets stored in our database for station/object KD8BMB. If no packets are shown the sender has not sent any weather packets the latest 10 day(s).
| Time | Temp. | Humidity | Pressure | Rain* | Wind** | Luminosity | Snow |
|---|---|---|---|---|---|---|---|
| 1777466619 | 7.22° C | 96% | 1014.2 hPa | 0 mm | - | 167 W/m² | - |
| 1777466315 | 7.22° C | 97% | 1014 hPa | 0 mm | - | 113 W/m² | - |
| 1777466012 | 6.67° C | 97% | 1014.5 hPa | 0 mm | - | 157 W/m² | - |
| 1777465708 | 6.67° C | 97% | 1014.2 hPa | 0 mm | - | 137 W/m² | - |
| 1777465404 | 6.67° C | 97% | 1014.2 hPa | 0 mm | - | 102 W/m² | - |
| 1777465102 | 7.22° C | 98% | 1014.2 hPa | 0 mm | - | 60 W/m² | - |
| 1777464798 | 6.67° C | 98% | 1014.2 hPa | 0 mm | - | 44 W/m² | - |
| 1777464494 | 7.22° C | 98% | 1014.3 hPa | 0 mm | - | 34 W/m² | - |
| 1777464190 | 7.22° C | 98% | 1014.3 hPa | 0 mm | - | 27 W/m² | - |
| 1777463890 | 7.22° C | 98% | 1014.2 hPa | 0 mm | - | 13 W/m² | - |
| 1777463586 | 7.78° C | 98% | 1014.3 hPa | 0 mm | - | 15 W/m² | - |
| 1777463281 | 7.78° C | 98% | 1014.5 hPa | 0 mm | - | 21 W/m² | - |
| 1777462977 | 7.78° C | 98% | 1014.3 hPa | 1.78 mm | - | 16 W/m² | - |
| 1777462673 | 7.78° C | 98% | 1014.3 hPa | 1.78 mm | - | 14 W/m² | - |
| 1777462368 | 8.33° C | 97% | 1014.2 hPa | 1.27 mm | - | 10 W/m² | - |
| 1777462065 | 8.33° C | 96% | 1014 hPa | 1.27 mm | - | 8 W/m² | - |
| 1777461762 | 8.33° C | 96% | 1014.1 hPa | 1.78 mm | - | 6 W/m² | - |
| 1777461457 | 8.33° C | 95% | 1013.9 hPa | 1.78 mm | - | 4 W/m² | - |
| 1777461154 | 8.33° C | 93% | 1013.9 hPa | 1.27 mm | - | 3 W/m² | - |
| 1777460849 | 8.89° C | 92% | 1013.9 hPa | 1.27 mm | - | 3 W/m² | - |
| 1777460545 | 8.89° C | 90% | 1013.7 hPa | 0 mm | - | 2 W/m² | - |
| 1777460241 | 8.89° C | 88% | 1013 hPa | 0 mm | - | 0 W/m² | - |
| 1777459938 | 8.89° C | 88% | 1012.6 hPa | 0 mm | - | 0 W/m² | - |
| 1777459635 | 8.89° C | 87% | 1012.7 hPa | 0 mm | - | 0 W/m² | - |
| 1777459332 | 8.89° C | 87% | 1012.9 hPa | 0 mm | - | 0 W/m² | - |
* Rain latest hour (hover to see other rain measurements)
** Current wind speed in m/s (hover to see current wind gust speed)